Vertical_Velocity
1 1 2 1 -4 -1 1 -4 -7 -4 -2 0 -2 -1 -1 -3 -0 -3 1 -1 -2 -3 -1 -3 -5 -4 -0 -0 1 -0 -0 -1 -3 -0 1 0 1 -1 -2 -5 2 -0 0 0
1 1 2 -0 -3 1 -0 -7 -5 -4 -2 4 -2 1 -2 -6 -5 -2 -0 2 8 -2 -4 -3 -2 -3 1 -5 -4 0 0 -2 -2 -2 -3 -3 0 1 1 -3 -3 3 -2 0
1 2 2 -1 -1 0 -2 -7 -3 -3 -3 -3 1 -2 -5 -3 4 1 -3 1 2 3 2 -3 -2 -2 -5 -2 -0 1 0 -0 2 -3 -2 -3 -2 -1 -2 -3 -5 13 9 10
1 1 4 -2 -0 -1 -3 -6 -4 3 -1 -5 -2 -4 0 -4 -7 -5 1 -6 1 1 2 2 -2 3 -2 1 1 -0 -0 -1 -1 -1 -1 -0 1 1 0 -1 1 -13 17 -6
2 1 0 -1 -0 -1 -0 -7 -7 -5 1 -2 -0 -2 0 0 -0 2 -10 2 -3 -3 -2 1 2 1 1 2 0 1 2 -0 -3 -2 -0 -0 1 -2 -3 -3 -2 -1 -6 13
0 2 0 -2 -1 -3 1 -6 -3 -4 1 -4 -0 4 0 -1 -2 3 3 3 3 2 -1 -1 -1 -1 -0 -2 -3 -2 -1 -3 -3 -1 -1 -0 1 -7 -6 -2 -5 -7 -1 2
0 2 1 -1 -0 -2 -1 -7 -3 -8 -1 -4 1 1 -2 -3 -2 0 3 -6 -4 1 2 1 1 2 -0 1 1 -1 2 1 0 1 2 -1 2 -1 -0 -3 -4 -1 -3 -4
2 1 -1 -1 -2 -2 -3 -3 -3 -8 -2 -3 -1 -4 -3 -2 -5 -5 -1 2 5 4 2 1 1 0 -0 -1 -1 1 0 1 3 3 4 2 2 -1 -1 -4 -4 -0 -1 -2
4 0 0 0 -1 0 -5 -4 -2 -8 -5 -3 -3 -1 -1 -3 -2 -1 -2 -8 -4 -11 -4 -0 -0 -1 -1 -0 -1 -1 -1 -2 -1 2 1 -0 -2 -3 1 -1 -7 1 1 1
2 1 2 0 -2 1 -6 1 -2 -6 -1 -4 -4 -5 -2 0 -2 -0 1 -5 -7 -2 -3 -5 -2 2 -0 -1 1 -2 -0 0 -2 -2 -0 -2 2 3 1 -2 -2 0 1 0
-0 0 2 -0 -3 -1 -5 0 -3 -6 -2 -3 -4 -5 -4 -0 -2 -2 -3 2 1 -1 3 5 0 -7 -2 -1 -2 0 -1 -2 1 1 -2 -2 2 0 -0 0 -0 0 -2 -1
-0 1 0 -1 -0 0 -5 6 -1 -6 -1 -2 -6 -4 -7 -1 -3 -6 -6 -1 -3 -2 4 2 9 8 0 -0 -0 -2 -3 -0 -0 -1 1 1 -1 -1 -2 0 0 -1 3 -2
3 1 1 -2 -1 -0 -4 -1 -3 -5 -4 -3 -3 -6 -4 -4 -2 -3 -6 -1 -2 -0 4 9 1 -1 4 3 2 -0 1 -1 2 -1 -3 -2 -1 -2 -2 2 3 1 -1 3
6 5 -0 -3 1 -2 -0 -1 4 -4 -2 -3 -5 -6 -3 -4 -2 -4 -4 -3 -3 -1 4 -2 -3 -5 0 3 2 1 -2 -3 -0 2 0 1 -4 -4 -0 -3 -3 2 1 -2
2 1 -0 -2 2 -5 3 2 -1 -1 -0 -3 -0 -6 -5 -5 -2 -5 -2 -1 -3 -0 0 -1 -3 2 16 5 -6 -3 -0 -2 -0 -0 -1 2 3 -4 -4 1 -0 -1 2 -4
-1 -0 -1 -0 -1 -4 -0 -4 -1 -2 -3 -3 -5 -7 -4 -3 -2 -5 -3 -4 -2 -2 -2 -3 -2 -7 -10 -8 -6 7 5 -0 2 3 1 -5 1 3 -1 1 0 2 -1 0
-0 1 -2 -0 0 -2 -1 -2 3 -2 0 -4 -6 -5 -5 -0 -1 -6 -5 -3 -1 -5 -3 -1 1 -1 1 -2 12 0 -5 -2 1 3 3 -4 -1 0 -0 3 1 -3 -4 1
1 -1 -2 -1 -2 3 -2 -1 1 1 -2 -4 -4 -3 -7 -1 -1 -6 -4 -7 -6 -1 1 -6 -2 -2 -3 5 -6 -7 4 3 -1 -5 -2 0 -1 -1 -3 -2 3 0 -0 -2
1 -0 -1 -0 1 0 -2 -1 1 -0 -2 -4 -4 -3 -6 -4 -2 -6 -4 -4 -10 -4 -4 -5 -2 -5 2 -6 1 3 -5 -4 -4 -0 1 -2 -2 -5 -3 -3 -6 -2 -2 -0
2 1 1 -1 -1 1 -1 -2 -1 -1 -3 -4 -5 -4 -7 -3 -1 -5 -5 -5 -8 -10 -7 -10 -6 -1 -5 9 -8 -3 -1 8 0 -3 -4 -2 -4 -0 -2 -4 -7 -2 -0 -1
0 1 3 -0 1 1 -0 -1 -0 -1 -3 -3 -3 -3 -3 -1 -3 -3 -6 -5 -6 -9 -9 -9 -7 -6 -4 -2 0 -4 -5 -11 -4 -1 -4 -2 1 1 -1 -2 0 -0 -2 -3
1 1 -2 1 1 1 -3 -1 -2 -2 -2 -3 -2 -2 -3 -2 -4 -3 -3 -3 -3 -5 -2 -3 -2 -2 1 -7 -7 -3 -3 1 1 -4 -2 -1 -4 -2 2 2 2 -0 1 0
0 -4 0 0 -2 -1 1 -1 -2 -1 -1 -0 0 -2 -1 0 -5 -2 -3 -2 0 1 1 -1 4 1 3 5 1 5 -5 -2 -1 0 -0 -6 -1 0 -4 1 0 5 4 4
-3 1 0 -4 -2 1 2 -0 -1 -1 -1 1 0 -3 -0 -2 -2 -2 -1 -4 -1 -4 1 4 -0 -0 -1 -1 -2 -3 -2 -6 -6 -3 -2 -5 -0 3 -2 -4 1 1 1 0
-1 1 -4 0 3 1 -0 -3 -2 -1 1 -1 -3 -4 -3 -3 -3 -0 -2 -5 -1 2 2 1 1 2 1 -4 -2 2 -3 7 3 -2 -1 3 4 -0 -0 -2 -3 -5 -1 -4
-4 2 3 1 1 -1 -3 -1 -3 -1 1 -0 -1 -4 -3 2 -4 -2 -2 -2 2 1 2 0 -1 -4 -6 -4 -3 -3 -0 -1 1 7 5 3 -2 0 1 8 1 -2 -1 1
2 1 -2 1 -1 -2 -1 1 -2 -1 0 0 -4 -3 -3 -3 -5 -1 -2 -2 3 3 -4 0 -1 1 3 3 2 6 2 4 4 0 -3 3 1 -0 -3 2 -2 -6 -1 -1
Height
5711 5709 5707 5706 5702 5699 5693 5689 5682 5670 5656 5645 5632 5624 5622 5622 5623 5623 5623 5622 5622 5624 5626 5627 5631 5635 5637 5641 5646 5648 5652 5656 5659 5663 5667 5670 5674 5678 5681 5684 5688 5690 5692 5695
5705 5704 5703 5701 5699 5696 5691 5687 5680 5670 5657 5644 5633 5623 5621 5621 5622 5624 5624 5626 5625 5626 5628 5630 5632 5636 5640 5643 5647 5650 5654 5656 5659 5661 5666 5669 5671 5676 5679 5681 5683 5684 5686 5687
5700 5699 5698 5697 5696 5692 5688 5686 5678 5670 5658 5646 5635 5625 5621 5621 5622 5624 5625 5626 5627 5628 5629 5631 5633 5637 5641 5645 5648 5650 5653 5655 5659 5663 5666 5669 5671 5673 5674 5675 5676 5680 5680 5683
5695 5694 5694 5693 5692 5689 5686 5683 5677 5670 5659 5647 5636 5625 5619 5620 5621 5623 5625 5626 5628 5629 5630 5632 5635 5638 5642 5644 5647 5650 5653 5655 5658 5660 5662 5664 5667 5669 5670 5671 5674 5673 5677 5676
5689 5690 5689 5689 5687 5685 5683 5680 5676 5669 5659 5647 5637 5627 5620 5619 5620 5622 5624 5626 5627 5629 5630 5633 5636 5639 5641 5643 5646 5647 5649 5652 5654 5656 5659 5660 5662 5664 5666 5666 5667 5667 5667 5669
5684 5684 5684 5684 5683 5682 5679 5677 5673 5668 5661 5650 5638 5630 5621 5618 5618 5620 5622 5624 5626 5628 5631 5632 5634 5637 5639 5641 5643 5645 5647 5649 5651 5652 5654 5655 5657 5658 5659 5660 5659 5659 5659 5660
5678 5679 5680 5680 5679 5678 5676 5673 5670 5666 5659 5651 5640 5631 5622 5617 5616 5618 5620 5623 5624 5627 5628 5631 5633 5634 5636 5638 5639 5641 5642 5644 5645 5647 5648 5650 5651 5651 5652 5652 5652 5651 5652 5653
5672 5674 5675 5675 5674 5674 5672 5670 5667 5665 5659 5652 5642 5633 5623 5616 5615 5615 5618 5620 5623 5625 5626 5628 5630 5632 5633 5634 5636 5637 5639 5640 5641 5642 5642 5644 5644 5645 5645 5645 5645 5645 5646 5647
5667 5669 5670 5671 5670 5669 5669 5667 5665 5662 5657 5652 5643 5634 5626 5618 5613 5613 5615 5616 5618 5622 5624 5626 5627 5629 5629 5631 5632 5633 5634 5635 5637 5637 5638 5638 5637 5638 5638 5639 5639 5639 5640 5640
5661 5664 5665 5666 5665 5665 5665 5665 5662 5659 5655 5650 5644 5636 5628 5617 5613 5613 5612 5613 5616 5619 5621 5623 5625 5626 5627 5628 5628 5629 5630 5630 5631 5631 5632 5631 5632 5633 5633 5633 5636 5633 5633 5633
5655 5658 5661 5661 5661 5661 5661 5661 5659 5657 5653 5649 5643 5637 5629 5619 5614 5612 5611 5612 5615 5616 5618 5619 5620 5622 5622 5624 5624 5625 5626 5626 5626 5627 5627 5628 5627 5627 5628 5627 5627 5627 5626 5626
5648 5652 5655 5656 5657 5657 5656 5656 5655 5654 5652 5646 5642 5636 5629 5622 5615 5612 5610 5610 5611 5612 5613 5615 5615 5617 5618 5619 5620 5621 5622 5622 5622 5623 5622 5621 5620 5621 5620 5620 5620 5620 5620 5619
5641 5646 5649 5650 5651 5651 5651 5651 5651 5650 5647 5643 5638 5635 5629 5622 5616 5611 5611 5608 5608 5609 5607 5608 5611 5614 5614 5614 5614 5615 5616 5617 5618 5617 5616 5615 5614 5613 5613 5615 5615 5614 5613 5613
5634 5638 5640 5643 5646 5645 5645 5647 5646 5645 5643 5641 5638 5634 5630 5623 5616 5611 5609 5607 5605 5605 5604 5607 5608 5609 5610 5610 5610 5609 5610 5611 5611 5611 5611 5610 5607 5605 5606 5606 5605 5606 5606 5605
5626 5631 5635 5637 5640 5640 5641 5642 5642 5641 5640 5638 5635 5634 5629 5623 5616 5612 5609 5606 5603 5602 5602 5603 5605 5604 5604 5605 5605 5605 5605 5605 5606 5607 5605 5605 5602 5600 5598 5599 5598 5597 5597 5596
5620 5624 5628 5632 5634 5635 5636 5636 5638 5637 5636 5634 5633 5632 5627 5621 5617 5614 5611 5606 5602 5601 5601 5601 5601 5600 5599 5598 5598 5598 5597 5597 5598 5598 5598 5596 5596 5594 5592 5592 5591 5589 5588 5588
5613 5617 5621 5625 5628 5629 5632 5634 5634 5632 5632 5631 5630 5629 5626 5620 5617 5614 5612 5607 5603 5601 5599 5598 5596 5595 5594 5593 5591 5590 5589 5588 5588 5589 5589 5587 5585 5585 5584 5583 5583 5581 5579 5578
5606 5610 5615 5618 5622 5624 5626 5628 5628 5628 5628 5628 5626 5625 5623 5618 5616 5614 5612 5609 5605 5601 5599 5596 5594 5593 5591 5591 5589 5587 5585 5584 5582 5581 5580 5580 5579 5577 5575 5574 5573 5572 5569 5568
5600 5603 5607 5612 5615 5618 5620 5622 5623 5623 5625 5623 5622 5621 5619 5616 5613 5612 5611 5609 5607 5604 5600 5596 5593 5590 5588 5586 5584 5582 5582 5580 5577 5576 5574 5571 5569 5568 5567 5565 5563 5562 5559 5558
5593 5597 5601 5605 5608 5611 5614 5615 5617 5618 5618 5617 5616 5616 5615 5613 5610 5609 5608 5606 5604 5602 5600 5597 5593 5589 5585 5583 5580 5578 5575 5575 5573 5571 5568 5565 5561 5558 5556 5554 5553 5551 5548 5546
5587 5590 5595 5598 5602 5605 5606 5609 5611 5612 5612 5612 5612 5611 5610 5607 5607 5605 5604 5602 5600 5597 5596 5592 5589 5585 5583 5578 5575 5572 5570 5567 5564 5562 5560 5556 5554 5550 5547 5543 5540 5538 5537 5534
5580 5586 5588 5593 5596 5598 5601 5603 5605 5606 5606 5606 5605 5605 5604 5603 5602 5601 5599 5596 5594 5591 5588 5584 5581 5578 5575 5572 5569 5565 5562 5559 5556 5552 5548 5543 5540 5537 5533 5530 5527 5525 5523 5522
5573 5578 5582 5588 5590 5592 5596 5598 5600 5600 5600 5600 5600 5599 5598 5597 5596 5594 5591 5589 5586 5583 5580 5577 5574 5570 5566 5563 5559 5556 5551 5547 5543 5539 5534 5530 5526 5521 5518 5515 5512 5510 5508 5507
5568 5572 5577 5581 5583 5588 5591 5593 5594 5596 5595 5594 5594 5593 5592 5589 5587 5585 5582 5578 5576 5572 5571 5569 5565 5561 5556 5552 5547 5542 5538 5532 5527 5522 5517 5512 5506 5503 5498 5496 5493 5492 5492 5492
5561 5566 5570 5575 5580 5583 5586 5588 5589 5590 5588 5587 5587 5586 5584 5581 5578 5575 5571 5568 5565 5563 5560 5558 5554 5549 5544 5538 5533 5528 5524 5518 5511 5504 5497 5489 5482 5479 5477 5473 5472 5471 5472 5474
5555 5560 5566 5571 5574 5577 5580 5582 5583 5583 5581 5580 5579 5577 5575 5573 5569 5566 5562 5559 5555 5552 5548 5544 5540 5535 5529 5525 5519 5512 5505 5496 5487 5478 5469 5462 5456 5451 5447 5444 5442 5444 5449 5452
5551 5556 5560 5565 5569 5572 5574 5576 5576 5576 5575 5573 5572 5569 5566 5563 5560 5556 5552 5549 5545 5539 5535 5531 5527 5522 5516 5510 5504 5495 5485 5475 5462 5453 5443 5435 5427 5423 5419 5417 5415 5418 5422 5428